Home > Weather > Mobile > Past weeks

Flag for USA Weather for the Past 2 Weeks in Mobile, Alabama, USA

Now
61 °F

Sunny.


Feels Like: 61 °F
Forecast: 61 / 77 °F
Wind: 17 mph from North

Location: Mobile Downtown Airport

Current Time: May 4, 2016 at 8:44:51 AM

Latest Report: May 4, 2016 at 7:53 AM


Visibility: 10 mi

Pressure: 29.91 "Hg

Humidity: 75%

Dew Point: 53 °F

Location of MobileLocation

Historic Weather in Mobile — Graph

°F

Mobile Temperature Yesterday

Maximum temperature yesterday: 77 °F (at 3:53 PM)
Minimum temperature yesterday: 67 °F (at 12:53 AM)
Average temperature yesterday: 71 °F

High & Low Weather Summary for the Past Weeks

 TemperatureHumidityPressure
High82 °F (Apr 23, 1:53 PM)100% (Apr 20, 4:53 AM)30.23 "Hg (Apr 20, 4:53 AM)
Low57 °F (Apr 24, 2:53 AM)37% (Apr 23, 1:53 PM)29.76 "Hg (Apr 27, 7:53 PM)
Average72 °F84%29.97 "Hg
* Reported Apr 19 7:53 AM — May 4 6:53 AM, Mobile, Weather by CustomWeather, © 2016

Note: Actual official high and low records may vary slightly from our data, if they occured in-between our weather recording intervals... More about our weather records

Advertising

Mobile Weather History for the Previous 24 Hours

Scroll right to see more
 ConditionsComfort  
Time TempWeatherWind HumidityBarometerVisibility
6:53 AM
Wed, May 4
60 °FClear.12 mph80%29.91 "Hg10 mi
5:53 AM60 °FPassing clouds.12 mph78%29.91 "Hg10 mi
4:53 AM61 °FOvercast.10 mph78%29.91 "Hg10 mi
3:53 AM62 °FOvercast.10 mph75%29.91 "Hg10 mi
2:53 AM63 °FPassing clouds.16 mph78%29.91 "Hg10 mi
1:53 AM64 °FClear.17 mph78%29.91 "Hg10 mi
12:53 AM66 °FClear.15 mph81%29.92 "Hg10 mi
11:53 PM
Tue, May 3
67 °FClear.8 mph90%29.91 "Hg10 mi
10:53 PM69 °FOvercast.6 mph84%29.92 "Hg10 mi
9:53 PM70 °FOvercast.7 mph84%29.92 "Hg10 mi
8:53 PM70 °FOvercast.6 mph84%29.91 "Hg10 mi
7:53 PM71 °FOvercast.6 mph81%29.90 "Hg10 mi
6:53 PM73 °FPartly sunny.12 mph76%29.89 "Hg10 mi
5:53 PM74 °FBroken clouds.8 mph82%29.89 "Hg10 mi
4:53 PM74 °FLight rain. Mostly cloudy.6 mph85%29.88 "Hg10 mi
3:53 PM77 °FMore clouds than sun.7 mph77%29.88 "Hg10 mi
2:53 PM76 °FMore clouds than sun.No wind77%29.90 "Hg10 mi
1:53 PM76 °FMore clouds than sun.3 mph77%29.91 "Hg10 mi
12:53 PM74 °FCloudy.3 mph82%29.93 "Hg10 mi
11:53 AM75 °FPartly sunny.7 mph79%29.96 "Hg10 mi
10:53 AM75 °FPartly sunny.7 mph82%29.96 "Hg10 mi
9:53 AM72 °FFog.5 mph87%29.96 "Hg6 mi
8:53 AM69 °FFog.9 mph96%29.96 "Hg4 mi
Weather by CustomWeather, © 2016

See weather overviewHow to use our weather pages